EW3803 Weather Reports


time (UTC)temp
C
wind
direction
speed
KPH
gust
KPH
rain 1hr
cm
rain 24hr
cm
rain mn
cm
humidity
%
barometer
mb
20260903090012 30 48 3.2 6.4 0.00 0.00 0.00 42 1019.0
20260903084517 28 34 4.8 12.9 0.00 0.00 0.00 47 1019.0
20260903083015 27 336 0.0 3.2 0.00 0.00 0.00 53 1018.7
20260903081513 26 337 1.6 3.2 0.00 0.00 0.00 54 1018.6
20260903080012 25 337 0.0 3.2 0.00 0.00 0.00 63 1018.7
20260903074519 24 337 0.0 3.2 0.00 0.00 0.00 66 1018.8
20260903073022 23 337 1.6 3.2 0.00 0.00 0.00 73 1018.7
20260903071507 22 337 0.0 4.8 0.00 0.00 0.00 70 1018.6
20260903070015 22 360 4.8 6.4 0.00 0.00 0.00 69 1018.5
20260903064515 21 360 3.2 4.8 0.00 0.00 0.00 73 1018.5
20260903063021 21 360 0.0 3.2 0.00 0.00 0.00 75 1018.4
20260903061518 21 360 0.0 6.4 0.00 0.00 0.00 77 1018.5
20260903060015 20 360 4.8 8.0 0.00 0.00 0.00 81 1018.3
20260903054520 19 333 4.8 6.4 0.00 0.00 0.00 84 1018.1
20260903053021 19 315 0.0 1.6 0.00 0.00 0.00 84 1018.2
20260903051522 19 315 0.0 3.2 0.00 0.00 0.00 83 1018.3
20260903050017 19 315 1.6 3.2 0.00 0.00 0.00 83 1018.0
20260903044519 20 315 1.6 3.2 0.00 0.00 0.00 82 1018.0
20260903043025 20 315 1.6 3.2 0.00 0.00 0.00 82 1017.9
20260903041523 20 315 3.2 4.8 0.00 0.00 0.00 83 1017.7
20260903040013 20 309 3.2 4.8 0.00 0.00 0.00 83 1017.7
20260903034513 20 290 3.2 4.8 0.00 0.00 0.00 84 1017.7
20260903033027 20 289 3.2 4.8 0.00 0.00 0.00 84 1017.5
20260903031538 20 290 4.8 4.8 0.00 0.00 0.00 82 1017.5
20260903030024 20 290 4.8 6.4 0.00 0.00 0.00 81 1017.5
20260903024510 20 290 3.2 3.2 0.00 0.00 0.00 81 1017.8
20260903023016 20 289 3.2 3.2 0.00 0.00 0.00 81 1018.0
20260903021538 20 289 0.0 0.0 0.00 0.00 0.00 80 1018.0
20260903020033 20 290 0.0 0.0 0.00 0.00 0.00 79 1018.0
20260903014510 21 290 0.0 0.0 0.00 0.00 0.00 78 1018.0
20260903013016 21 290 0.0 0.0 0.00 0.00 0.00 78 1018.2
20260903011525 21 289 0.0 0.0 0.00 0.00 0.00 78 1018.3
20260903010031 21 289 0.0 0.0 0.00 0.00 0.00 77 1018.4
20260903004531 21 290 0.0 0.0 0.00 0.00 0.00 76 1018.5
20260903003015 21 290 0.0 0.0 0.00 0.00 0.00 76 1018.5
20260903001517 21 290 0.0 1.6 0.00 0.00 0.00 76 1018.6
20260903000039 22 290 1.6 3.2 0.00 0.00 0.00 75 1018.6
20260902234528 22 290 1.6 3.2 0.00 0.00 0.00 75 1018.7
20260902233043 22 290 1.6 3.2 0.00 0.00 0.00 75 1018.9
20260902231518 22 304 3.2 11.3 0.00 0.00 0.00 74 1019.0
20260902230022 22 309 6.4 12.9 0.00 0.00 0.00 73 1019.0
20260902224528 22 304 6.4 11.3 0.00 0.00 0.00 73 1018.9
20260902223029 22 294 4.8 12.9 0.00 0.00 0.00 73 1018.8
20260902221517 22 314 8.0 12.9 0.00 0.00 0.00 71 1018.6
20260902220035 22 311 6.4 8.0 0.00 0.00 0.00 71 1018.5
20260902214546 22 288 6.4 11.3 0.00 0.00 0.00 73 1018.5
20260902213030 22 289 6.4 9.7 0.00 0.00 0.00 75 1018.5
20260902211530 21 284 6.4 9.7 0.00 0.00 0.00 76 1018.5
20260902210018 21 275 6.4 6.4 0.00 0.00 0.00 76 1018.4
20260902204523 21 271 4.8 9.7 0.00 0.00 0.00 76 1018.3
20260902203032 21 279 6.4 9.7 0.00 0.00 0.00 76 1018.2
20260902201539 21 274 8.0 11.3 0.00 0.00 0.00 76 1018.0
20260902200033 21 272 4.8 9.7 0.00 0.00 0.00 77 1018.0
20260902194526 21 283 6.4 9.7 0.00 0.00 0.00 79 1017.9
20260902193028 21 276 4.8 11.3 0.00 0.00 0.00 79 1017.8
20260902191533 21 281 4.8 9.7 0.00 0.00 0.00 79 1017.8
20260902190013 21 275 4.8 11.3 0.00 0.00 0.00 79 1017.9
20260902184518 22 278 8.0 17.7 0.00 0.00 0.00 79 1018.0
20260902183024 22 254 11.3 19.3 0.00 0.00 0.00 78 1017.9
20260902181529 22 246 12.9 19.3 0.00 0.00 0.00 77 1018.0
20260902180010 22 221 11.3 17.7 0.00 0.00 0.00 77 1018.1
20260902174520 22 259 11.3 20.9 0.00 0.00 0.00 77 1018.2
20260902173037 22 219 11.3 24.1 0.00 0.00 0.00 77 1018.2
20260902171536 22 246 16.1 24.1 0.00 0.00 0.00 76 1018.3
20260902170032 22 247 14.5 24.1 0.00 0.00 0.00 1018.3
20260902164515 22 246 14.5 25.7 0.00 0.00 0.00 1018.4
20260902163020 23 254 14.5 25.7 0.00 0.00 0.00 76 1018.6
20260902161526 22 269 19.3 25.7 0.00 0.00 0.00 76 1018.7
20260902160044 23 267 14.5 22.5 0.00 0.00 0.00 75 1018.7
20260902154542 23 221 14.5 24.1 0.00 0.00 0.00 75 1019.1
20260902153033 23 227 14.5 24.1 0.00 0.00 0.00 75 1019.1
20260902151523 23 221 14.5 20.9 0.00 0.00 0.00 75 1019.3
20260902150027 22 224 17.7 22.5 0.00 0.00 0.00 74 1019.3
20260902144532 22 236 12.9 22.5 0.00 0.00 0.00 74 1019.4
20260902143013 22 241 14.5 22.5 0.00 0.00 0.00 74 1019.6
20260902141521 22 246 16.1 25.7 0.00 0.00 0.00 74 1019.5
20260902140026 22 212 12.9 20.9 0.00 0.00 0.00 71 1019.6
20260902134532 22 234 11.3 19.3 0.00 0.00 0.00 73 1019.8
20260902133040 22 236 11.3 20.9 0.00 0.00 0.00 74 1019.9
20260902131517 23 217 11.3 22.5 0.00 0.00 0.00 71 1019.9
20260902130023 22 251 16.1 24.1 0.00 0.00 0.00 72 1020.0
20260902124527 22 200 14.5 25.7 0.00 0.00 0.00 73 1020.0
20260902123045 22 189 16.1 24.1 0.00 0.00 0.00 72 1020.0
20260902121534 22 226 14.5 27.4 0.00 0.00 0.00 1020.0
20260902120032 22 219 19.3 27.4 0.00 0.00 0.00 1020.0
20260902114537 22 237 19.3 25.7 0.00 0.00 0.00 1020.1
20260902113030 22 216 17.7 24.1 0.00 0.00 0.00 74 1020.2
20260902111543 21 232 14.5 22.5 0.00 0.00 0.00 75 1020.4
20260902110017 21 231 14.5 22.5 0.00 0.00 0.00 76 1020.6
20260902104525 21 234 14.5 22.5 0.00 0.00 0.00 76 1020.7
20260902103007 21 226 14.5 22.5 0.00 0.00 0.00 75 1020.8
20260902101513 21 243 12.9 20.9 0.00 0.00 0.00 76 1020.7
20260902100018 20 237 12.9 20.9 0.00 0.00 0.00 78 1020.5
20260902094524 20 259 12.9 22.5 0.00 0.00 0.00 79 1020.5
20260902093006 20 269 9.7 20.9 0.00 0.00 0.00 80 1020.4
20260902091514 20 261 12.9 19.3 0.00 0.00 0.00 81 1020.0